Current weather by "City, St" or "zip code"  
 

Current Conditions: Pennridge Airport, PA

Fog


63.0 F

Last Updated on May 21 2022, 5:55 am EDT
Humidity: 100%
Wind Speed: N 0.0 mph
Barometer 29.99 in
Dewpoint: 62.6 F
Visibility: 0.15 mi
Precip: --
Heat Index: NA
Wind Chill: NA
Current conditions at:

Pennridge Airport, PA (KCKZ)

Lat: 40.38919 Lon: 75.29047

Local Radar Image active severe weather and emergency alerts image image weather storm and storm spotter reports image weather observation monitoring service image
Local
Radar
Active
Alerts
Storm Reports Obs
Monitoring

Sign-up For Email & Text Message Weather Alert Notification Services



Advertise Here

Observation History for Pennridge Airport, PA


Time Wind
(mph)
Vis
(mi)
Weather Precip (in) Temperature (F) Relative
Humidity
Wind
Chill
(F)
Heat
Index
(F)
Pressure
Air Dwpt altimeter
(in)
sea level
(mb)
Rmks
5:55 am EDT N 0.0 0.15 Fog -- 63.0 62.6 100% NA NA 29.99 M
5:35 am EDT N 0.0 0.15 Fog -- 63.0 62.6 100% NA NA 29.98 M
5:15 am EDT N 0.0 0.25 Fog -- 63.0 62.6 100% NA NA 29.98 M
4:55 am EDT N 0.0 0.25 Fog -- 63.0 62.6 100% NA NA 29.98 M
4:35 am EDT N 0.0 0.25 Fog -- 64.0 64.4 100% NA NA 29.98 M
4:15 am EDT NE 4.6 0.25 Fog -- 64.0 64.4 100% NA NA 29.97 M
3:55 am EDT NE 3.5 0.25 Fog -- 64.0 64.4 100% NA NA 29.97 M
3:15 am EDT NE 3.5 0.25 Fog -- 64.0 64.4 100% NA NA 29.96 M
2:55 am EDT N 3.5 0.25 Fog -- 64.0 64.4 100% NA NA 29.95 M
2:35 am EDT N 0.0 0.25 Fog -- 64.0 64.4 100% NA NA 29.94 M
2:15 am EDT NE 3.5 0.25 Fog -- 64.0 64.4 100% NA NA 29.94 M
1:55 am EDT NE 4.6 0.25 Fog -- 64.0 64.4 100% NA NA 29.94 M
1:15 am EDT NE 5.8 0.25 Fog -- 64.0 64.4 100% NA NA 29.94 M
12:55 am EDT E 3.5 0.15 Fog -- 64.0 64.4 100% NA NA 29.94 M
12:35 am EDT NE 4.6 0.15 Fog -- 64.0 64.4 100% NA NA 29.94 M
12:15 am EDT E 3.5 0.15 Fog -- 64.0 64.4 100% NA NA 29.94 M
11:55 pm EDT NE 4.6 0.15 Fog -- 64.0 64.4 100% NA NA 29.94 M
11:35 pm EDT E 3.5 0.15 Fog -- 64.0 64.4 100% NA NA 29.93 M
10:55 pm EDT E 4.6 0.25 Fog -- 64.0 64.4 100% NA NA 29.94 M
10:15 pm EDT E 5.8 1.50 Fog/Mist -- 64.0 64.4 100% NA NA 29.94 M
9:55 pm EDT NE 8.1 5.00 Fog/Mist -- 64.0 64.4 100% NA NA 29.94 M
9:35 pm EDT E 5.8 5.00 Fog/Mist -- 64.0 64.4 100% NA NA 29.93 M
9:15 pm EDT E 6.9 6.00 Fog/Mist -- 64.0 64.4 100% NA NA 29.93 M
8:55 pm EDT E 6.9 7.00 A Few Clouds -- 64.0 64.4 100% NA NA 29.92 M

Regional Weather Observation


Allentown Queen City Municipal Airport, PA (KXLL)

Fog/Mist
64.0 F

Quakertown Airport, PA (KUKT)

Fog
64.0 F

Lehighton Jake Arner Memorial Airport, PA (K22N)

Fog
64.0 F

Pennridge Airport, PA (KCKZ)

Fog
63.0 F

Pottstown, Pottstown Limerick Airport, PA (KPTW)

Fog
63.0 F

Doylestown, Doylestown Airport, PA (KDYL)

Fog
64.0 F

Advertise Here


Advertise Here